Terug naar catalogus

COSMOS 839 DEB

ActiefUNKNOWN
NORAD 10620·DEBRIS·🇷🇺 Russia

Gelanceerd Jul 8, 1976 vanaf Plesetsk Cosmodrome

Loading…

Volgende Passages (komende 24 uur)

TLE

VersSource: Space-Track

Epoch: Sep 14, 2026, 05:24 UTC

1 10620U 76067AU  26257.22529079  .00000718  00000-0  26520-2 0  9996
2 10620  65.9550 351.2644 0652923 268.8622 107.1286 12.42439214266457

Volg COSMOS 839 DEB in realtime met AllMySat

Download on the App Store